Current weather by "City, St" or "zip code"  
 

Current Conditions: Greeley, Greeley-Weld County Airport, CO

Fair


32.0 F

Last Updated on Oct 23 2020, 7:56 pm MDT
Humidity: 61%
Wind Speed: E 6.9 mph
Barometer 30.15 in
Dewpoint: 19.9 F
Visibility: 10.00 mi
Precip: --
Heat Index: NA
Wind Chill: 26 F
Current conditions at:

Greeley, Greeley-Weld County Airport, CO (KGXY)

Lat: 40.43333 Lon: 104.63333

Local Radar Image active severe weather and emergency alerts image image weather storm and storm spotter reports image weather observation monitoring service image
Local
Radar
Active
Alerts
Storm Reports Obs
Monitoring

Sign-up For Email & Text Message Weather Alert Notification Services



Advertise Here

Observation History for Greeley, Greeley-Weld County Airport, CO


Time Wind
(mph)
Vis
(mi)
Weather Precip (in) Temperature (F) Relative
Humidity
Wind
Chill
(F)
Heat
Index
(F)
Pressure
Air Dwpt altimeter
(in)
sea level
(mb)
Rmks
7:56 pm MDT E 6.9 10.00 Fair -- 32.0 19.9 61% 26 NA 30.15 1025.4
6:56 pm MDT SE 6.9 10.00 Overcast -- 36.0 21.0 55% 30 NA 30.17 1025.6
5:56 pm MDT S 9.2 10.00 Mostly Cloudy -- 36.0 21.0 55% 29 NA 30.19 1026.2
4:56 pm MDT SE 11.5 10.00 A Few Clouds -- 40.0 18.0 41% 33 NA 30.21 1026.6
3:56 pm MDT SE 8.1 10.00 Fair -- 40.0 18.0 41% 35 NA 30.24 1027.4
2:56 pm MDT S 13.8 10.00 A Few Clouds -- 39.0 17.1 41% 31 NA 30.26 1028.4
1:56 pm MDT SE 6.9 10.00 Mostly Cloudy -- 36.0 17.1 46% 30 NA 30.31 1030.3
12:56 pm MDT N 0.0 10.00 Mostly Cloudy -- 31.0 17.1 56% NA NA 30.35 1032.4
11:56 am MDT 4.6 10.00 Overcast -- 30.0 17.1 58% 25 NA 30.40 1033.9
10:56 am MDT N 0.0 10.00 Overcast -- 27.0 17.1 66% NA NA 30.42 1035.1
9:56 am MDT N 0.0 10.00 Overcast Trace 25.0 16.0 69% NA NA 30.44 1035.8
8:56 am MDT NE 5.8 9.00 Light Snow Trace 23.0 16.0 74% 16 NA 30.44 1036.1
7:56 am MDT NE 5.8 10.00 Overcast Trace 23.0 15.1 72% 16 NA 30.42 1035.1
6:56 am MDT NE 9.2 9.00 Light Snow Trace 23.0 15.1 72% 13 NA 30.41 1034.8
5:56 am MDT NE 10.4 10.00 Overcast -- 23.0 15.1 72% 12 NA 30.41 1034.5
4:56 am MDT NE 9.2 10.00 Overcast -- 23.0 15.1 72% 13 NA 30.39 1033.6
3:56 am MDT N 10.4 10.00 Overcast -- 24.0 15.1 68% 14 NA 30.38 1032.7
2:56 am MDT N 11.5 10.00 Overcast -- 24.0 15.1 68% 13 NA 30.38 1032.2
1:56 am MDT N 9.2 10.00 Overcast Trace 24.0 15.1 68% 14 NA 30.38 1032.2
12:56 am MDT N 11.5 10.00 Overcast Trace 25.0 16.0 69% 14 NA 30.37 1031.7
11:56 pm MDT N 15.0 10.00 Light Snow Trace 25.0 16.0 69% 13 NA 30.35 1031.1
10:56 pm MDT N 15.0 10.00 Overcast -- 26.0 15.1 63% 14 NA 30.34 1030.6
9:56 pm MDT N 13.8 10.00 Overcast -- 26.0 17.1 69% 14 NA 30.31 1029.8
8:56 pm MDT N 12.7 10.00 Overcast -- 26.0 19.0 75% 15 NA 30.31 1030.1

Regional Weather Observation


Fort Collins/Loveland - Northern Colorado Regional Airport, CO (KFNL)

Mostly Cloudy
31.0 F

Erie Municipal Airport, CO (KEIK)

Fair
27.0 F

Boulder Municipal Airport, CO (KBDU)

Fair
30.0 F

Cheyenne, Cheyenne Airport, WY (KCYS)

Partly Cloudy
25.0 F

Fort Morgan Municipal Airport, CO (KFMM)

Fair
30.0 F

Broomfield / Jeffco, CO (KBJC)

Mostly Cloudy
30.0 F